SCP
0 0 0 0 0 0 0 -0 0 0 -0 -0 0 0 0 0 0 0 0 0 0 0 0 0 -0 0 0 0 0 0 0 0 0 0 0 0 0 0 0 0 0 0 0 0 0 0 0 0 0
0 0 0 0 0 0 0 0 0 -0 0 0 0 0 0 0 0 0 0 0 0 0 0 0 0 0 0 0 0 0 0 0 0 0 0 0 0 0 0 0 0 0 0 0 0 0 0 0 0
0 0 0 0 0 0 0 0 0 0 0 0 0 0 0 0 0 0 0 0 0 0 0 0 0 0 0 0 0 0 0 0 0 0 0 0 0 0 0 0 0 0 0 0 0 0 0 0 0
0 0 0 0 0 0 0 0 0 0 0 0 0 0 0 0 0 0 0 0 0 0 0 0 0 0 0 0 0 0 0 0 0 0 0 0 0 0 0 0 0 0 0 0 0 0 0 0 0
0 0 0 0 0 0 0 0 0 0 0 0 0 0 0 0 0 0 0 0 0 0 0 0 0 0 0 0 0 0 0 0 0 0 0 0 0 0 0 0 0 0 0 0 0 0 0 0 0
0 0 0 0 0 0 0 0 0 0 0 0 0 0 0 0 0 0 0 0 0 0 0 0 0 0 0 0 0 0 0 0 0 0 0 0 0 0 0 0 0 0 0 0 0 0 0 0 0
0 0 0 0 0 0 0 0 0 0 0 0 0 0 0 0 0 0 0 0 0 0 0 0 0 0 0 0 0 0 0 0 0 0 0 0 0 0 0 0 0 0 0 0 0 0 0 0 0
0 0 0 0 0 0 0 0 0 0 0 0 0 0 0 0 0 0 0 0 0 0 0 0 0 0 0 0 0 0 0 0 0 0 0 0 0 0 0 0 0 0 0 0 0 0 0 0 0
0 0 0 0 0 0 0 0 0 0 0 0 0 0 0 0 0 0 0 0 0 0 0 0 0 0 0 0 0 0 0 0 0 0 0 0 0 0 0 0 0 0 0 0 0 0 0 0 0
0 0 0 0 0 0 0 0 0 0 0 0 0 0 0 0 0 0 0 0 0 0 0 0 0 0 0 0 0 0 0 0 0 0 0 0 0 0 0 0 0 0 0 0 0 0 0 0 0
0 0 0 0 0 0 0 0 0 0 -0 0 0 0 0 0 0 0 0 0 0 0 0 0 0 0 0 0 0 0 0 0 0 0 0 0 0 0 0 0 0 0 0 0 0 0 0 0 0
0 0 0 0 0 0 0 0 0 0 0 0 0 0 0 0 0 0 0 0 0 0 0 0 0 0 0 0 0 0 0 0 0 0 0 0 0 0 0 0 0 0 0 0 0 0 0 0 0
0 0 0 0 0 0 0 0 0 0 0 0 0 0 0 0 0 0 0 0 0 0 0 0 0 0 0 0 0 0 0 0 0 0 0 0 0 0 0 0 0 0 0 0 0 0 0 0 -0
0 0 0 0 0 0 0 0 0 0 0 0 0 0 0 0 0 0 0 0 0 0 0 0 0 0 0 0 0 0 0 0 0 0 0 0 0 0 0 0 0 0 0 0 0 0 0 0 -0
0 0 0 0 0 0 0 0 0 0 0 0 0 0 0 0 0 -0 0 0 0 0 0 0 0 0 0 0 0 0 0 0 0 0 0 0 0 0 0 0 0 0 0 0 0 0 0 -0 -0
0 0 0 0 0 0 0 0 0 0 0 0 0 0 0 0 0 0 0 0 0 0 0 0 0 0 0 0 0 0 0 0 0 0 0 0 0 0 0 0 0 -0 0 0 0 -0 -0 0 0
0 0 0 0 0 0 0 0 0 0 0 0 -0 -0 -0 -0 0 0 0 0 0 0 0 0 0 0 0 0 0 0 0 0 0 0 0 0 0 0 0 0 -0 -0 0 0 0 0 0 0 0
0 0 0 0 0 0 0 0 0 0 -0 0 0 0 0 -0 0 0 0 0 0 0 0 0 0 0 0 0 0 0 0 0 0 0 0 0 0 0 0 0 0 0 0 0 0 0 0 0 -0
0 0 0 0 0 0 0 0 0 0 0 0 0 0 0 0 0 0 0 0 0 0 0 0 0 0 0 0 0 0 0 0 0 0 0 0 0 0 0 0 0 -0 0 0 0 0 0 0 0
0 0 0 0 0 -0 0 0 0 0 0 0 0 0 0 0 0 0 0 0 0 0 0 0 0 0 0 0 0 0 0 0 0 0 0 0 0 0 0 -0 -0 -0 0 -0 -0 0 0 0 0
0 0 0 0 0 -0 -0 -0 0 0 0 0 0 0 0 0 0 0 0 0 0 0 0 0 0 0 0 0 0 0 0 0 0 0 0 0 0 -0 0 -0 -0 -0 -0 0 0 0 0 -0 0
0 0 0 0 0 0 0 -0 0 0 0 0 0 0 0 0 0 0 0 0 0 0 0 0 0 0 0 0 0 0 0 0 0 0 0 0 -0 -0 0 0 -0 -0 0 0 -0 0 0 0 -0
0 0 0 0 0 0 0 0 -0 0 0 0 0 0 0 0 0 0 0 0 0 0 0 0 0 0 0 0 0 0 0 0 0 0 0 -0 -0 -0 0 0 0 -0 -0 -0 0 -0 -0 0 -0
0 0 0 0 0 0 0 0 -0 -0 0 0 0 0 0 0 0 0 0 0 0 0 0 0 0 0 0 0 0 0 0 0 0 0 0 -0 -0 0 0 0 0 0 -0 0 0 -0 -0 0 -0
0 0 0 0 0 0 0 0 0 0 0 0 0 0 0 0 0 0 0 0 0 0 0 0 0 0 0 0 0 0 0 0 0 0 0 0 0 0 0 0 0 0 0 0 -0 0 -0 -0 0
0 0 0 0 0 0 0 0 0 0 0 0 0 0 0 0 0 0 0 0 0 0 0 0 0 0 0 0 0 0 0 0 0 0 0 0 0 0 0 0 0 0 0 0 0 0 0 0 0
0 0 0 0 0 0 0 0 0 0 0 0 0 0 0 0 0 0 0 0 0 0 0 0 0 0 0 0 0 0 0 0 0 0 0 0 0 0 0 0 0 0 0 0 0 0 0 -0 0
0 0 0 0 0 0 0 0 0 0 0 0 0 0 0 0 0 0 0 0 0 0 0 0 0 0 0 0 0 0 0 0 0 0 0 0 0 0 0 0 0 0 0 0 0 0 0 0 -0
0 0 0 0 0 0 0 0 0 0 0 0 0 0 0 0 0 0 0 0 0 0 0 0 0 0 0 0 0 0 0 0 0 0 0 0 0 0 0 0 0 0 0 0 0 0 0 0 -0
0 0 0 0 0 0 0 0 0 0 0 0 0 0 0 0 0 0 0 0 0 0 0 0 0 0 0 0 0 0 0 0 0 0 0 0 0 0 0 0 0 0 0 0 0 0 0 0 0
Wind_Speed_500mb
16 12 6 6 7 9 6 11 5 6 4 4 6 7 9 5 10 9 10 28 25 37 29 25 23 23 24 23 21 20 20 21 22 24 27 29 32 33 36 37 38 38 37 36 36 34 35 35 35
16 14 9 7 9 4 10 7 10 11 0 7 6 3 3 7 7 3 18 28 27 33 28 22 19 21 23 23 22 22 23 23 25 29 32 35 38 40 43 44 46 47 45 44 40 40 42 42 41
16 16 6 8 7 9 8 8 9 4 3 3 2 5 6 5 7 6 13 27 28 30 25 20 16 20 23 23 23 23 24 27 29 33 35 36 38 39 39 41 44 47 50 53 52 46 47 47 45
14 10 8 8 9 11 8 3 5 2 2 6 3 8 9 12 4 10 20 28 22 22 21 18 16 20 23 22 23 25 27 29 31 32 34 36 37 39 42 45 47 49 51 55 60 64 52 48 52
15 7 4 3 8 10 9 11 8 7 3 1 4 7 8 12 18 10 15 22 21 20 20 18 19 20 21 23 26 27 28 29 30 32 34 36 40 43 47 50 52 54 56 59 60 63 71 60 57
5 3 6 4 8 9 12 18 9 7 6 2 6 7 10 13 19 15 15 18 20 18 18 20 20 21 23 25 26 26 27 30 32 34 36 40 44 48 52 54 57 60 61 62 64 67 69 78 67
9 6 6 4 7 8 9 5 7 12 4 10 7 5 8 11 17 18 18 20 22 23 22 21 21 21 22 24 25 26 28 31 34 36 40 44 50 54 55 53 54 55 57 61 65 66 68 69 75
7 6 7 8 5 10 6 4 3 6 7 7 11 11 8 5 17 23 24 25 26 25 25 23 22 20 22 22 23 25 28 32 35 38 43 49 51 47 45 45 46 46 39 32 37 50 64 67 66
9 5 5 8 11 7 4 3 1 5 9 12 12 20 18 15 18 28 31 32 33 32 29 27 24 22 22 22 23 25 29 33 37 42 47 47 41 40 39 43 34 25 25 28 32 33 34 45 66
7 7 16 7 6 3 5 3 7 6 8 13 27 34 34 26 27 33 34 37 35 35 31 30 26 23 22 22 22 27 31 36 40 44 43 39 37 35 34 25 23 27 28 30 32 33 35 35 43
11 10 9 5 9 8 6 9 7 5 12 29 24 19 17 28 36 41 40 40 30 31 31 30 27 26 24 23 26 29 34 39 43 44 39 37 34 31 27 25 25 26 27 31 37 24 23 32 32
5 11 8 2 4 4 6 9 13 26 39 43 39 28 30 29 37 41 39 36 35 35 33 31 29 28 26 27 28 32 37 41 44 40 37 36 33 27 25 22 22 21 24 31 29 22 22 29 21
2 6 12 19 17 17 19 22 20 51 65 58 54 53 50 39 35 35 35 39 39 39 37 34 31 29 29 27 29 34 38 42 41 37 37 35 30 24 22 20 19 19 20 25 17 21 23 13 14
9 11 12 16 17 12 8 7 1 21 16 17 16 19 20 30 37 39 45 45 45 41 40 37 34 32 30 28 31 34 39 41 38 36 35 29 20 21 16 14 15 14 15 9 12 16 8 12 14
2 9 10 10 4 9 5 13 20 54 36 35 32 22 18 25 30 38 37 39 39 41 40 39 34 32 29 29 31 34 38 37 34 32 27 18 18 17 18 11 9 9 6 3 9 12 18 20 20
3 6 5 3 7 1 6 19 16 16 11 27 25 28 36 40 43 42 38 36 43 43 43 38 34 31 28 28 30 33 34 31 28 25 20 19 20 19 11 11 6 11 5 4 18 19 25 43 31
7 5 4 14 3 4 5 14 10 1 16 58 65 68 63 60 50 51 45 34 40 46 42 37 34 29 26 26 28 31 28 24 23 20 19 17 15 9 4 9 20 13 7 14 23 30 26 30 38
8 6 8 8 4 1 7 24 31 53 40 64 68 73 69 60 39 35 48 38 38 45 41 35 32 28 25 24 27 27 22 21 20 17 15 11 7 5 16 25 18 11 10 19 28 26 31 39 43
8 5 3 3 4 6 10 19 37 38 44 53 54 60 45 29 28 25 38 44 44 46 43 39 33 28 23 22 25 22 18 18 14 12 8 4 8 21 31 21 12 18 23 29 31 41 26 39 35
4 5 7 8 5 2 12 35 37 31 30 38 42 32 30 27 17 12 23 38 45 45 43 37 32 26 22 22 22 18 16 16 8 7 4 6 17 29 29 20 16 23 23 26 34 36 44 32 34
5 9 6 9 10 3 13 18 14 10 11 22 25 25 17 11 14 10 27 40 45 45 41 33 28 23 21 21 19 15 15 10 2 5 6 11 25 30 25 15 18 26 20 22 25 30 37 41 37
6 12 10 5 6 6 8 11 13 13 23 8 24 19 11 11 13 12 29 42 46 44 38 32 26 22 21 19 16 13 12 4 4 8 10 16 30 30 19 14 23 24 18 22 26 30 39 34 39
10 8 10 5 7 5 7 4 15 8 15 11 16 30 14 14 9 5 23 38 43 43 37 30 24 21 19 18 15 12 8 7 9 12 14 19 30 27 15 11 20 26 25 21 24 35 34 32 30
15 10 12 9 5 3 7 8 10 6 7 14 14 38 24 14 10 3 22 36 44 41 35 27 21 19 17 17 15 12 9 13 13 13 15 19 27 23 14 11 20 25 31 26 24 31 34 27 27
4 10 4 8 5 10 3 4 19 16 22 13 15 37 26 10 11 6 22 41 43 38 31 23 18 18 16 16 15 14 12 15 18 15 15 19 23 22 19 17 20 26 29 30 31 29 33 25 27
12 11 11 13 7 6 6 11 9 6 24 48 49 38 29 18 12 4 16 35 35 31 25 20 17 17 15 15 16 16 14 18 19 21 15 19 23 22 22 20 23 27 28 26 26 28 32 25 24
10 8 9 12 5 6 7 14 4 13 27 43 56 64 58 33 18 6 11 27 27 25 21 18 18 16 14 14 17 19 18 18 21 21 19 14 19 20 15 19 19 22 27 20 23 23 22 21 24
6 12 7 5 5 8 7 9 11 19 27 29 38 52 63 48 32 19 4 13 18 19 20 21 21 18 16 15 18 20 23 20 24 23 19 17 15 20 19 21 24 23 24 24 25 26 20 22 27
5 5 4 8 8 9 4 10 6 8 12 18 29 46 52 54 47 34 17 5 7 14 19 22 22 22 20 18 20 22 24 26 25 28 26 22 19 18 22 24 28 28 31 34 34 30 28 26 33
2 11 11 8 8 7 3 7 9 10 13 23 31 40 50 52 49 40 30 15 7 6 13 19 24 27 25 24 23 23 28 30 31 30 32 30 27 25 23 30 33 31 30 32 37 39 36 37 35
Wind_Direction_500mb
214 201 154 119 60 62 271 262 273 271 217 185 129 154 195 181 172 207 179 170 177 187 185 187 202 219 221 222 233 244 249 257 265 270 274 276 276 273 270 267 263 259 253 253 254 254 257 250 245
196 182 149 99 91 67 264 248 230 229 20 126 125 93 275 257 213 209 165 170 171 182 190 198 213 226 222 228 238 248 253 261 268 273 275 276 276 274 270 267 264 261 256 249 251 252 253 252 242
178 166 135 97 112 197 218 217 251 275 214 116 337 252 276 259 236 208 191 181 169 179 193 202 216 226 231 236 243 249 258 267 272 275 277 277 275 274 273 271 267 265 259 251 244 243 247 251 243
158 142 60 101 206 251 223 242 275 16 256 220 229 284 263 245 229 219 202 193 192 186 195 209 221 226 234 240 249 258 265 270 273 275 277 277 278 278 276 274 271 267 263 258 249 242 244 244 239
157 128 76 111 240 263 249 253 226 187 254 178 172 267 252 251 239 222 195 190 199 199 205 215 224 227 235 247 259 267 272 273 274 277 278 281 281 280 278 276 273 270 265 261 259 253 244 244 241
129 118 84 259 261 266 282 253 181 195 236 215 202 253 254 247 238 223 201 196 195 210 218 222 229 236 244 256 265 272 275 279 282 284 287 287 287 286 285 282 278 273 268 263 257 253 249 244 243
137 110 196 196 247 305 248 218 210 175 219 242 210 186 260 250 229 215 206 202 203 210 222 231 235 241 250 259 268 275 279 281 284 290 293 295 295 295 294 289 283 278 272 266 262 259 256 250 245
184 94 143 234 195 253 249 240 250 195 251 236 198 223 251 296 217 210 206 211 216 223 226 231 237 249 259 266 271 276 279 285 292 297 299 302 302 300 297 293 289 281 278 284 279 265 257 253 246
163 82 211 234 172 234 293 320 196 235 247 243 227 249 258 269 226 214 215 217 225 229 228 234 241 251 258 270 276 281 290 296 301 304 306 305 301 300 303 308 306 308 299 296 290 287 278 265 252
152 158 212 215 206 264 308 276 302 306 255 261 257 258 262 261 242 233 228 230 233 237 235 235 246 256 267 274 279 289 296 300 303 306 307 305 303 305 309 314 312 313 311 311 308 297 276 276 264
179 211 204 238 253 281 280 277 255 247 273 250 255 278 276 260 248 235 234 237 244 243 237 239 250 259 266 269 282 293 299 302 306 309 308 305 305 303 303 306 314 313 309 309 312 308 301 297 275
165 250 233 293 195 248 257 289 283 234 255 276 285 279 276 266 252 246 242 246 244 240 239 240 248 256 262 269 289 297 300 305 310 310 308 306 300 290 293 301 304 311 315 312 325 314 290 296 270
172 255 224 245 270 266 264 257 260 270 276 278 272 267 269 262 252 247 243 243 243 241 241 246 250 256 261 271 289 297 302 307 309 310 310 310 304 291 283 291 308 312 314 324 335 319 315 311 172
220 231 265 270 256 238 231 265 182 272 284 280 273 272 270 260 256 250 247 243 242 240 241 246 252 253 256 272 289 297 303 307 310 311 316 312 314 317 293 287 301 323 323 12 354 343 25 110 133
221 308 307 229 237 217 175 289 232 266 277 277 270 264 268 280 260 255 254 247 245 242 238 245 249 249 254 272 287 296 304 308 309 318 318 325 317 314 298 307 301 334 90 39 27 78 114 127 146
53 39 341 353 130 352 152 269 274 315 251 283 283 272 280 279 281 266 254 249 239 234 234 238 240 239 252 272 287 297 304 308 314 322 315 317 314 307 290 286 296 142 113 11 103 105 125 144 149
15 230 224 319 179 123 186 277 267 20 305 296 291 288 288 287 278 263 249 246 236 229 227 231 230 233 252 270 286 296 303 311 320 315 315 320 318 319 332 109 127 130 108 98 130 136 148 151 152
176 208 242 256 360 268 245 266 275 288 297 286 289 289 292 292 291 265 241 235 232 220 219 223 225 231 252 270 284 295 303 316 320 314 321 330 349 89 120 131 119 109 136 147 142 129 150 142 144
131 159 288 272 7 289 253 278 285 290 279 278 281 291 293 292 299 268 227 225 217 210 211 213 220 233 251 269 283 291 300 321 317 330 351 29 99 124 132 123 108 118 141 146 137 143 151 152 145
9 32 281 278 320 269 340 295 282 275 263 268 285 288 290 294 294 263 207 204 205 208 206 207 217 231 251 267 281 284 297 317 305 6 44 115 129 138 139 123 137 144 150 157 158 159 155 171 158
217 201 222 224 331 47 325 293 329 307 288 295 292 289 287 312 300 246 195 197 198 200 202 205 217 234 249 266 275 277 299 313 332 66 103 130 142 147 147 137 145 160 156 159 159 175 160 155 157
209 200 181 204 68 245 19 288 308 309 308 329 5 359 296 320 310 238 198 195 195 195 195 201 216 234 248 265 264 267 296 292 147 121 126 140 152 154 149 136 140 161 159 164 173 186 179 172 168
226 124 140 98 104 4 340 72 272 304 301 351 17 22 358 339 336 262 205 196 190 191 194 201 216 231 246 260 253 254 279 196 150 134 139 149 161 166 169 167 169 166 172 164 178 191 193 185 189
154 84 59 58 80 4 268 134 288 275 20 316 325 355 337 326 339 227 195 191 187 189 197 207 220 229 244 254 246 241 243 187 167 153 153 160 170 177 192 196 170 164 165 179 184 199 194 207 216
105 93 350 352 9 225 335 87 246 324 323 311 330 348 1 339 349 301 199 187 188 195 202 214 227 231 247 252 244 235 231 199 185 177 175 187 191 199 212 214 195 173 168 188 197 204 227 228 222
190 152 158 203 203 260 100 229 241 27 24 21 18 28 29 27 21 316 209 196 194 203 213 227 239 236 253 251 241 231 228 211 199 195 202 207 210 217 233 223 200 191 184 190 198 211 225 236 240
183 199 162 106 39 50 223 279 252 29 11 14 7 11 22 23 17 10 199 200 202 216 230 246 249 250 265 256 246 238 232 223 213 212 213 219 211 210 211 190 183 184 187 197 202 221 236 229 215
161 165 85 7 172 232 268 277 254 1 353 359 9 6 15 34 32 38 96 194 212 231 248 260 255 259 267 266 253 246 236 233 223 221 216 207 202 209 207 204 203 201 199 204 214 216 222 213 208
136 188 83 142 170 181 155 253 25 24 5 352 6 13 15 34 40 45 57 106 220 252 265 268 264 270 277 280 270 254 245 238 235 228 224 220 215 219 226 218 219 218 217 219 216 212 218 220 212
320 207 170 155 222 236 146 267 96 84 44 19 14 16 25 38 44 48 50 40 4 285 272 274 274 276 282 282 276 266 252 246 240 238 234 234 233 234 236 231 228 226 230 230 223 212 222 222 218
Wind_Speed_850mb
16 12 6 6 7 9 6 11 5 6 4 4 6 7 9 5 10 9 10 28 25 37 29 25 23 23 24 23 21 20 20 21 22 24 27 29 32 33 36 37 38 38 37 36 36 34 35 35 35
16 14 9 7 9 4 10 7 10 11 0 7 6 3 3 7 7 3 18 28 27 33 28 22 19 21 23 23 22 22 23 23 25 29 32 35 38 40 43 44 46 47 45 44 40 40 42 42 41
16 16 6 8 7 9 8 8 9 4 3 3 2 5 6 5 7 6 13 27 28 30 25 20 16 20 23 23 23 23 24 27 29 33 35 36 38 39 39 41 44 47 50 53 52 46 47 47 45
14 10 8 8 9 11 8 3 5 2 2 6 3 8 9 12 4 10 20 28 22 22 21 18 16 20 23 22 23 25 27 29 31 32 34 36 37 39 42 45 47 49 51 55 60 64 52 48 52
15 7 4 3 8 10 9 11 8 7 3 1 4 7 8 12 18 10 15 22 21 20 20 18 19 20 21 23 26 27 28 29 30 32 34 36 40 43 47 50 52 54 56 59 60 63 71 60 57
5 3 6 4 8 9 12 18 9 7 6 2 6 7 10 13 19 15 15 18 20 18 18 20 20 21 23 25 26 26 27 30 32 34 36 40 44 48 52 54 57 60 61 62 64 67 69 78 67
9 6 6 4 7 8 9 5 7 12 4 10 7 5 8 11 17 18 18 20 22 23 22 21 21 21 22 24 25 26 28 31 34 36 40 44 50 54 55 53 54 55 57 61 65 66 68 69 75
7 6 7 8 5 10 6 4 3 6 7 7 11 11 8 5 17 23 24 25 26 25 25 23 22 20 22 22 23 25 28 32 35 38 43 49 51 47 45 45 46 46 39 32 37 50 64 67 66
9 5 5 8 11 7 4 3 1 5 9 12 12 20 18 15 18 28 31 32 33 32 29 27 24 22 22 22 23 25 29 33 37 42 47 47 41 40 39 43 34 25 25 28 32 33 34 45 66
7 7 16 7 6 3 5 3 7 6 8 13 27 34 34 26 27 33 34 37 35 35 31 30 26 23 22 22 22 27 31 36 40 44 43 39 37 35 34 25 23 27 28 30 32 33 35 35 43
11 10 9 5 9 8 6 9 7 5 12 29 24 19 17 28 36 41 40 40 30 31 31 30 27 26 24 23 26 29 34 39 43 44 39 37 34 31 27 25 25 26 27 31 37 24 23 32 32
5 11 8 2 4 4 6 9 13 26 39 43 39 28 30 29 37 41 39 36 35 35 33 31 29 28 26 27 28 32 37 41 44 40 37 36 33 27 25 22 22 21 24 31 29 22 22 29 21
2 6 12 19 17 17 19 22 20 51 65 58 54 53 50 39 35 35 35 39 39 39 37 34 31 29 29 27 29 34 38 42 41 37 37 35 30 24 22 20 19 19 20 25 17 21 23 13 14
9 11 12 16 17 12 8 7 1 21 16 17 16 19 20 30 37 39 45 45 45 41 40 37 34 32 30 28 31 34 39 41 38 36 35 29 20 21 16 14 15 14 15 9 12 16 8 12 14
2 9 10 10 4 9 5 13 20 54 36 35 32 22 18 25 30 38 37 39 39 41 40 39 34 32 29 29 31 34 38 37 34 32 27 18 18 17 18 11 9 9 6 3 9 12 18 20 20
3 6 5 3 7 1 6 19 16 16 11 27 25 28 36 40 43 42 38 36 43 43 43 38 34 31 28 28 30 33 34 31 28 25 20 19 20 19 11 11 6 11 5 4 18 19 25 43 31
7 5 4 14 3 4 5 14 10 1 16 58 65 68 63 60 50 51 45 34 40 46 42 37 34 29 26 26 28 31 28 24 23 20 19 17 15 9 4 9 20 13 7 14 23 30 26 30 38
8 6 8 8 4 1 7 24 31 53 40 64 68 73 69 60 39 35 48 38 38 45 41 35 32 28 25 24 27 27 22 21 20 17 15 11 7 5 16 25 18 11 10 19 28 26 31 39 43
8 5 3 3 4 6 10 19 37 38 44 53 54 60 45 29 28 25 38 44 44 46 43 39 33 28 23 22 25 22 18 18 14 12 8 4 8 21 31 21 12 18 23 29 31 41 26 39 35
4 5 7 8 5 2 12 35 37 31 30 38 42 32 30 27 17 12 23 38 45 45 43 37 32 26 22 22 22 18 16 16 8 7 4 6 17 29 29 20 16 23 23 26 34 36 44 32 34
5 9 6 9 10 3 13 18 14 10 11 22 25 25 17 11 14 10 27 40 45 45 41 33 28 23 21 21 19 15 15 10 2 5 6 11 25 30 25 15 18 26 20 22 25 30 37 41 37
6 12 10 5 6 6 8 11 13 13 23 8 24 19 11 11 13 12 29 42 46 44 38 32 26 22 21 19 16 13 12 4 4 8 10 16 30 30 19 14 23 24 18 22 26 30 39 34 39
10 8 10 5 7 5 7 4 15 8 15 11 16 30 14 14 9 5 23 38 43 43 37 30 24 21 19 18 15 12 8 7 9 12 14 19 30 27 15 11 20 26 25 21 24 35 34 32 30
15 10 12 9 5 3 7 8 10 6 7 14 14 38 24 14 10 3 22 36 44 41 35 27 21 19 17 17 15 12 9 13 13 13 15 19 27 23 14 11 20 25 31 26 24 31 34 27 27
4 10 4 8 5 10 3 4 19 16 22 13 15 37 26 10 11 6 22 41 43 38 31 23 18 18 16 16 15 14 12 15 18 15 15 19 23 22 19 17 20 26 29 30 31 29 33 25 27
12 11 11 13 7 6 6 11 9 6 24 48 49 38 29 18 12 4 16 35 35 31 25 20 17 17 15 15 16 16 14 18 19 21 15 19 23 22 22 20 23 27 28 26 26 28 32 25 24
10 8 9 12 5 6 7 14 4 13 27 43 56 64 58 33 18 6 11 27 27 25 21 18 18 16 14 14 17 19 18 18 21 21 19 14 19 20 15 19 19 22 27 20 23 23 22 21 24
6 12 7 5 5 8 7 9 11 19 27 29 38 52 63 48 32 19 4 13 18 19 20 21 21 18 16 15 18 20 23 20 24 23 19 17 15 20 19 21 24 23 24 24 25 26 20 22 27
5 5 4 8 8 9 4 10 6 8 12 18 29 46 52 54 47 34 17 5 7 14 19 22 22 22 20 18 20 22 24 26 25 28 26 22 19 18 22 24 28 28 31 34 34 30 28 26 33
2 11 11 8 8 7 3 7 9 10 13 23 31 40 50 52 49 40 30 15 7 6 13 19 24 27 25 24 23 23 28 30 31 30 32 30 27 25 23 30 33 31 30 32 37 39 36 37 35
Wind_Direction_850mb
214 201 154 119 60 62 271 262 273 271 217 185 129 154 195 181 172 207 179 170 177 187 185 187 202 219 221 222 233 244 249 257 265 270 274 276 276 273 270 267 263 259 253 253 254 254 257 250 245
196 182 149 99 91 67 264 248 230 229 20 126 125 93 275 257 213 209 165 170 171 182 190 198 213 226 222 228 238 248 253 261 268 273 275 276 276 274 270 267 264 261 256 249 251 252 253 252 242
178 166 135 97 112 197 218 217 251 275 214 116 337 252 276 259 236 208 191 181 169 179 193 202 216 226 231 236 243 249 258 267 272 275 277 277 275 274 273 271 267 265 259 251 244 243 247 251 243
158 142 60 101 206 251 223 242 275 16 256 220 229 284 263 245 229 219 202 193 192 186 195 209 221 226 234 240 249 258 265 270 273 275 277 277 278 278 276 274 271 267 263 258 249 242 244 244 239
157 128 76 111 240 263 249 253 226 187 254 178 172 267 252 251 239 222 195 190 199 199 205 215 224 227 235 247 259 267 272 273 274 277 278 281 281 280 278 276 273 270 265 261 259 253 244 244 241
129 118 84 259 261 266 282 253 181 195 236 215 202 253 254 247 238 223 201 196 195 210 218 222 229 236 244 256 265 272 275 279 282 284 287 287 287 286 285 282 278 273 268 263 257 253 249 244 243
137 110 196 196 247 305 248 218 210 175 219 242 210 186 260 250 229 215 206 202 203 210 222 231 235 241 250 259 268 275 279 281 284 290 293 295 295 295 294 289 283 278 272 266 262 259 256 250 245
184 94 143 234 195 253 249 240 250 195 251 236 198 223 251 296 217 210 206 211 216 223 226 231 237 249 259 266 271 276 279 285 292 297 299 302 302 300 297 293 289 281 278 284 279 265 257 253 246
163 82 211 234 172 234 293 320 196 235 247 243 227 249 258 269 226 214 215 217 225 229 228 234 241 251 258 270 276 281 290 296 301 304 306 305 301 300 303 308 306 308 299 296 290 287 278 265 252
152 158 212 215 206 264 308 276 302 306 255 261 257 258 262 261 242 233 228 230 233 237 235 235 246 256 267 274 279 289 296 300 303 306 307 305 303 305 309 314 312 313 311 311 308 297 276 276 264
179 211 204 238 253 281 280 277 255 247 273 250 255 278 276 260 248 235 234 237 244 243 237 239 250 259 266 269 282 293 299 302 306 309 308 305 305 303 303 306 314 313 309 309 312 308 301 297 275
165 250 233 293 195 248 257 289 283 234 255 276 285 279 276 266 252 246 242 246 244 240 239 240 248 256 262 269 289 297 300 305 310 310 308 306 300 290 293 301 304 311 315 312 325 314 290 296 270
172 255 224 245 270 266 264 257 260 270 276 278 272 267 269 262 252 247 243 243 243 241 241 246 250 256 261 271 289 297 302 307 309 310 310 310 304 291 283 291 308 312 314 324 335 319 315 311 172
220 231 265 270 256 238 231 265 182 272 284 280 273 272 270 260 256 250 247 243 242 240 241 246 252 253 256 272 289 297 303 307 310 311 316 312 314 317 293 287 301 323 323 12 354 343 25 110 133
221 308 307 229 237 217 175 289 232 266 277 277 270 264 268 280 260 255 254 247 245 242 238 245 249 249 254 272 287 296 304 308 309 318 318 325 317 314 298 307 301 334 90 39 27 78 114 127 146
53 39 341 353 130 352 152 269 274 315 251 283 283 272 280 279 281 266 254 249 239 234 234 238 240 239 252 272 287 297 304 308 314 322 315 317 314 307 290 286 296 142 113 11 103 105 125 144 149
15 230 224 319 179 123 186 277 267 20 305 296 291 288 288 287 278 263 249 246 236 229 227 231 230 233 252 270 286 296 303 311 320 315 315 320 318 319 332 109 127 130 108 98 130 136 148 151 152
176 208 242 256 360 268 245 266 275 288 297 286 289 289 292 292 291 265 241 235 232 220 219 223 225 231 252 270 284 295 303 316 320 314 321 330 349 89 120 131 119 109 136 147 142 129 150 142 144
131 159 288 272 7 289 253 278 285 290 279 278 281 291 293 292 299 268 227 225 217 210 211 213 220 233 251 269 283 291 300 321 317 330 351 29 99 124 132 123 108 118 141 146 137 143 151 152 145
9 32 281 278 320 269 340 295 282 275 263 268 285 288 290 294 294 263 207 204 205 208 206 207 217 231 251 267 281 284 297 317 305 6 44 115 129 138 139 123 137 144 150 157 158 159 155 171 158
217 201 222 224 331 47 325 293 329 307 288 295 292 289 287 312 300 246 195 197 198 200 202 205 217 234 249 266 275 277 299 313 332 66 103 130 142 147 147 137 145 160 156 159 159 175 160 155 157
209 200 181 204 68 245 19 288 308 309 308 329 5 359 296 320 310 238 198 195 195 195 195 201 216 234 248 265 264 267 296 292 147 121 126 140 152 154 149 136 140 161 159 164 173 186 179 172 168
226 124 140 98 104 4 340 72 272 304 301 351 17 22 358 339 336 262 205 196 190 191 194 201 216 231 246 260 253 254 279 196 150 134 139 149 161 166 169 167 169 166 172 164 178 191 193 185 189
154 84 59 58 80 4 268 134 288 275 20 316 325 355 337 326 339 227 195 191 187 189 197 207 220 229 244 254 246 241 243 187 167 153 153 160 170 177 192 196 170 164 165 179 184 199 194 207 216
105 93 350 352 9 225 335 87 246 324 323 311 330 348 1 339 349 301 199 187 188 195 202 214 227 231 247 252 244 235 231 199 185 177 175 187 191 199 212 214 195 173 168 188 197 204 227 228 222
190 152 158 203 203 260 100 229 241 27 24 21 18 28 29 27 21 316 209 196 194 203 213 227 239 236 253 251 241 231 228 211 199 195 202 207 210 217 233 223 200 191 184 190 198 211 225 236 240
183 199 162 106 39 50 223 279 252 29 11 14 7 11 22 23 17 10 199 200 202 216 230 246 249 250 265 256 246 238 232 223 213 212 213 219 211 210 211 190 183 184 187 197 202 221 236 229 215
161 165 85 7 172 232 268 277 254 1 353 359 9 6 15 34 32 38 96 194 212 231 248 260 255 259 267 266 253 246 236 233 223 221 216 207 202 209 207 204 203 201 199 204 214 216 222 213 208
136 188 83 142 170 181 155 253 25 24 5 352 6 13 15 34 40 45 57 106 220 252 265 268 264 270 277 280 270 254 245 238 235 228 224 220 215 219 226 218 219 218 217 219 216 212 218 220 212
320 207 170 155 222 236 146 267 96 84 44 19 14 16 25 38 44 48 50 40 4 285 272 274 274 276 282 282 276 266 252 246 240 238 234 234 233 234 236 231 228 226 230 230 223 212 222 222 218